ARIANE 40 R/B, 25261

Orbit data source: Space-Track

ARIANE 40 R/B, 25261 is space debris in SSO originally from a launch on Tue, 24 Mar 1998 UTC launched from the French Guiana (FRGUI). Debris objects in space refer to the collection of defunct objects orbiting the Earth. Examples of debris include non-operational satellites, rocket bodies, and fragments generated from explosions, collisions, or faulty payload assembly.

Loading next visibility...
Identifier
25261, 1998-017B
Orbit
SSO
Country
Flag of FRFR
Related business
Manufacturer
Ae/LesM
Mission
Spacecraft
Bus & Motor
ARIANE H10-3, Unknown motor
Mass
1,820 kg wet, 1,820 kg dry
Launch date (UTC)
1998-03-24 (28 years ago)
Launch vehicle
Unknown
Launch site
French Guiana (FRGUI)
Object type
Payload
Rocket body
Debris
Shape & HBR
Cyl, 5.5 m
Radar Cross Section
25.199 m², Large (>1 m²)

Expand to show TLE details & history
Last TLE update: 21 hours ago

TLE from 21 hours ago
0 ARIANE 40 R/B
1 25261U 98017B   26171.08073143  .00000238  00000-0  97273-4 0  9999
2 25261  98.8142 202.0888 0004570 110.9773 249.1901 14.36349365476403
Epoch: 2026-06-20T01:56Z
TLE epoch observation values (Epoch: 2026-06-20T01:56:15.195Z)
Latitude
-0.00007°
Longitude
-95.27499°
Altitude
774.681 km
Speed
7.466 km/s
True Right ascension
13h 28m 21s
True Declination
0° 00' 00"
Sunlit
Object was in daylight at epoch
Visualization orbit readout
Latitude
Unknown
Longitude
Unknown
Altitude
Unknown
Speed
Unknown
Apparent Right ascension
Unknown
Apparent Declination
Unknown
Sunlit
N/A
Visualization observer readout
Local Sidereal Time
10:18:38
Azimuth
Unknown
Elevation
Unknown
Doppler factor
Unknown
Orbital elements
Apogee altitude
770.993 km
Perigee altitude
764.462 km
Semi-major axis
7,145.865 km
Eccentricity
0.00046
Inclination
98.8142°
RAAN
202.0888°
Arg. of periapsis
110.9773°
True anomaly
249.14116°
Mean anomaly
249.1901°
Eccentric anomaly
249.16563°
Mean motion
3.59303 °/min
Orbital period
100.19 mins
BSTAR
0.000097273
Loading maneuver chart data...
Computing Atmospheric mass density...
Loading historical data...
Loading historical data...
Loading historical data...
Loading historical data...
Loading historical data...
Loading historical data...
Loading historical data...

Documentation

Showing up to 5 results
|